Hourly Data Report for October 15, 2014

All times are specified in Local Standard Time (LST). Add 1 hour to adjust for Daylight Saving Time where and when it is observed.

BATHURST A
NEW BRUNSWICK

47°37'47.000" N
65°44'20.000" W
58.80 m
8100505
71574
ZBF

Download Data

Hourly Data (October 2014)
Hourly Data Report for October 15, 2014
Temp Definition
°C
Dew Point Temp Definition
°C
Rel Hum Definition
%
Wind Dir Definition
10's deg

Wind Spd Definition
km/h
Visibility Definition
km
Stn Press Definition
kPa
Hmdx Definition


Wind Chill Definition


Weather Definition


TIME
00:00 Legend Double Dagger 13.9 12.1 89 18 4 24.1 100.58     LegendNANA
01:00 Legend Double Dagger 13.6 12.3 92 18 5 24.1 100.53     LegendNANA
02:00 Legend Double Dagger 14.2 12.9 92 18 13 24.1 100.46     Mainly Clear
03:00 Legend Double Dagger 13.8 13.0 95 18 10 24.1 100.44     LegendNANA
04:00 Legend Double Dagger 13.8 13.2 96 20 8 24.1 100.45     LegendNANA
05:00 Legend Double Dagger 17.5 14.1 80 22 13 24.1 100.38     Mostly Cloudy
06:00 Legend Double Dagger 19.5 14.4 72 24 19 24.1 100.42     LegendNANA
07:00 Legend Double Dagger 20.2 14.4 69 23 21 24.1 100.45     LegendNANA
08:00 Legend Double Dagger 20.4 14.6 69 23 20 24.1 100.56     Cloudy
09:00 Legend Double Dagger 20.8 15.0 69 25 25 24.1 100.58 25   LegendNANA
10:00 Legend Double Dagger 21.1 15.1 68 27 17 24.1 100.67 25   LegendNANA
11:00 Legend Double Dagger 20.8 15.2 70 29 27 24.1 100.75 25   Cloudy
12:00 Legend Double Dagger 18.3 14.5 78 30 18 24.1 100.86     LegendNANA
13:00 Legend Double Dagger 18.8 13.7 72 31 10 24.1 100.89     LegendNANA
14:00 Legend Double Dagger 18.8 12.2 65 35 6 24.1 100.91     Cloudy
15:00 Legend Double Dagger 17.9 10.8 63 30 8 24.1 100.99     LegendNANA
16:00 Legend Double Dagger 17.3 10.3 63 34 5 24.1 101.02     LegendNANA
17:00 Legend Double Dagger 16.7 10.2 65 1 8 24.1 101.06     Cloudy
18:00 Legend Double Dagger 15.4 11.2 76 3 4 24.1 101.12     Rain
19:00 Legend Double Dagger 13.7 12.6 93 36 3 24.1 101.15     Rain
20:00 Legend Double Dagger 13.7 11.9 89 36 3 19.3 101.25     Cloudy
21:00 Legend Double Dagger 12.4 11.3 93 4 5 19.3 101.31     Rain
22:00 Legend Double Dagger 11.6 10.7 94 11 13 19.3 101.34     Moderate Rain
23:00 Legend Double Dagger 10.4 9.5 94 11 10 19.3 101.38     Moderate Rain

Notes on Data Quality.

Legend

  • E = Estimated
  • M = Missing
  • NA = Not Available
  • ‡ = Partner data that is not subject to review by the National Climate Archives
Date modified: